Wind_Speed
5 4 6 20 7 7 15 15 15 15 16 16 16 17 19 15 10 9 11 8 16 9 14 15 17 17 15 13 11 10 9 9 7 6 6 5 5 3 4 4 3 3 3 3 3 6 5 4 5
2 6 14 10 4 5 13 12 14 14 12 12 18 14 14 18 13 10 8 19 12 10 16 16 17 17 15 11 10 9 9 9 7 5 4 4 4 4 3 3 3 2 1 2 2 4 5 4 3
1 3 6 9 8 4 11 13 12 8 9 6 6 16 13 14 12 7 6 14 9 8 19 17 16 16 14 11 9 8 8 7 6 5 5 4 4 4 2 3 3 2 1 0 1 3 4 4 4
6 9 6 8 10 4 10 9 3 6 12 3 6 11 15 12 6 8 7 16 12 4 16 18 17 16 13 10 8 8 7 7 6 5 4 4 4 4 3 3 2 2 2 1 1 1 2 3 3
6 7 10 10 9 3 7 3 5 3 11 11 3 30 26 12 12 11 8 6 17 15 11 17 15 16 14 12 9 8 8 7 7 5 4 3 4 5 4 4 3 3 3 2 2 2 2 3 3
2 7 6 5 9 7 9 6 4 4 6 1 9 17 21 7 12 12 11 7 14 14 12 16 16 16 16 15 12 11 10 8 7 6 4 3 3 4 5 5 4 5 4 4 3 3 2 2 2
4 10 15 12 15 12 9 3 10 9 6 16 11 16 8 5 8 10 8 7 9 13 10 17 16 16 16 16 14 13 12 10 9 7 7 5 4 5 7 6 6 6 5 6 5 4 3 2 2
8 14 22 9 3 7 5 7 6 4 13 7 17 17 9 6 8 8 5 3 11 4 7 14 13 14 14 15 15 14 14 14 11 9 8 6 4 5 8 9 7 8 8 8 6 4 4 3 3
7 10 13 5 7 6 3 9 7 2 11 14 13 10 1 8 12 10 6 3 3 4 2 8 11 12 16 16 17 16 15 15 14 12 10 7 2 12 10 11 9 10 9 10 8 6 6 5 5
7 5 3 4 7 9 8 8 9 6 6 11 4 5 6 12 14 12 8 4 4 3 3 9 10 11 15 18 18 17 18 16 15 15 9 12 11 16 15 13 14 9 11 10 10 8 8 7 6
10 17 12 8 6 8 10 10 10 5 8 16 5 4 2 11 13 13 10 7 5 2 2 4 9 13 15 14 15 16 18 17 16 18 18 20 17 18 12 13 13 12 13 13 12 10 9 8 7
14 9 11 10 9 9 13 14 11 11 14 12 9 5 3 8 12 11 7 9 8 7 6 6 3 8 12 14 14 16 20 21 20 20 22 21 18 19 17 18 17 17 13 14 14 13 11 9 7
14 14 14 11 12 12 13 11 13 8 8 8 7 3 5 10 7 5 6 7 6 6 7 8 8 4 4 10 11 7 20 24 22 25 25 24 22 18 19 20 20 21 15 16 15 13 11 9 7
16 13 17 16 16 12 10 7 12 8 4 2 2 7 5 7 6 4 5 5 6 6 6 8 10 7 4 1 7 11 14 24 17 19 27 27 24 20 16 18 22 25 18 17 17 15 13 11 8
19 21 20 16 16 15 8 10 7 9 9 7 8 11 11 12 8 7 6 7 6 6 8 9 11 10 9 8 7 9 12 15 20 22 17 23 25 25 21 20 23 25 24 21 20 18 17 14 9
16 19 20 18 22 10 8 7 11 13 13 8 9 11 13 12 10 8 7 6 6 9 11 11 12 13 11 11 11 12 13 15 17 20 22 18 22 26 25 25 24 29 28 26 20 21 21 17 13
18 24 23 7 5 9 7 5 7 11 13 14 13 13 12 13 13 11 9 7 6 9 11 13 14 15 15 15 14 14 16 16 19 22 23 21 19 25 26 26 24 22 24 30 24 25 24 21 17
20 19 7 14 25 7 8 9 5 9 8 9 14 12 11 11 12 13 10 12 11 7 10 12 15 18 20 21 18 17 19 19 21 21 26 28 25 27 28 28 26 28 25 32 28 27 28 24 17
23 22 17 12 1 9 10 8 9 9 8 11 15 20 13 8 11 15 11 10 15 14 11 13 17 20 21 19 21 21 23 23 24 25 25 24 20 23 31 31 29 28 26 29 30 27 29 27 18
19 20 19 14 12 10 12 13 13 16 20 7 11 10 5 4 7 15 21 13 15 18 17 14 19 17 17 19 21 25 25 25 22 29 25 23 21 19 29 31 32 30 28 31 38 34 28 29 25
18 17 17 16 15 11 15 18 19 15 15 15 8 6 4 6 10 14 19 12 15 14 18 14 13 15 17 19 24 25 25 24 29 26 22 22 20 21 26 31 31 33 31 30 35 40 34 25 31
18 14 14 15 15 18 12 17 19 12 8 11 20 9 8 8 7 8 18 18 8 10 18 14 12 15 16 20 22 22 24 26 20 20 21 27 23 20 23 30 30 32 33 33 33 34 35 31 29
18 11 10 11 17 18 20 18 4 8 8 12 13 17 4 8 7 16 21 16 9 12 17 11 13 17 20 19 18 18 22 19 16 14 12 17 21 16 16 25 29 31 33 33 31 34 37 31 27
14 15 12 15 18 19 21 21 16 4 15 3 7 2 10 8 15 21 15 14 9 16 12 8 12 18 23 20 17 19 19 17 14 12 10 10 17 20 17 19 27 30 30 31 30 29 37 30 30
15 15 15 14 14 14 17 25 22 16 10 7 10 9 10 14 13 14 15 6 15 16 5 7 10 19 26 26 17 18 17 18 11 11 8 10 11 14 15 17 20 25 29 31 30 31 32 29 29
21 18 21 15 7 4 7 9 18 6 8 3 8 11 13 12 13 11 8 9 15 5 3 6 15 23 21 21 17 20 20 15 9 8 7 6 4 9 12 15 16 19 25 30 29 28 30 31 26
17 20 21 25 29 14 18 21 13 11 7 3 9 12 11 14 13 9 8 7 6 7 7 9 10 13 17 18 18 19 17 19 13 7 8 3 1 4 8 11 15 17 21 28 27 28 26 27 28
21 17 14 21 16 16 15 12 15 12 10 5 9 13 11 16 17 12 8 11 8 10 10 7 9 10 16 15 18 16 13 21 16 10 10 8 3 3 4 7 9 13 16 19 25 26 25 25 28
19 22 22 18 21 14 11 6 12 10 20 11 12 14 15 17 14 10 12 13 10 9 11 9 8 6 14 14 17 16 15 16 19 14 13 13 13 9 4 1 4 7 11 18 21 25 26 29 26
20 20 23 20 19 23 16 5 5 3 9 28 16 14 14 13 10 13 8 13 10 7 11 6 15 19 11 10 16 16 12 10 11 11 14 16 11 10 10 2 1 4 8 12 18 20 23 28 27
Wind_Direction
133 178 44 27 302 18 87 80 76 72 62 59 61 54 54 54 56 103 153 137 197 166 169 169 170 168 161 156 149 139 135 125 123 129 130 133 137 141 111 107 110 93 100 108 125 136 152 158 167
149 136 61 95 97 257 90 87 73 71 65 68 71 58 41 58 52 94 136 143 213 179 176 173 172 168 162 160 156 148 144 138 131 133 138 141 154 162 138 132 132 124 89 109 131 132 142 134 165
58 91 181 102 188 180 119 90 96 106 93 80 84 76 54 68 62 52 105 149 173 204 172 174 174 175 169 163 160 160 151 146 140 146 154 161 177 175 190 176 147 131 137 163 189 137 150 145 161
187 32 330 240 177 189 79 72 99 96 106 62 331 107 72 51 94 24 96 149 176 213 166 177 178 183 184 179 177 174 167 160 159 150 160 171 179 189 197 204 163 153 155 169 217 141 126 160 166
67 4 28 313 295 298 70 64 74 77 77 22 194 71 70 39 27 36 59 144 141 190 167 178 186 190 194 198 195 195 193 186 176 171 166 177 195 202 196 206 196 197 184 190 213 171 178 153 155
296 248 57 352 308 356 81 60 34 67 55 183 330 1 47 40 21 29 33 110 173 188 176 190 193 196 200 205 209 208 206 205 202 196 202 191 194 215 226 218 220 217 212 208 213 219 191 165 178
261 278 277 91 353 353 32 14 55 103 130 33 355 354 84 122 33 36 47 98 193 210 162 193 197 204 207 213 219 220 220 219 224 217 228 230 218 221 239 231 234 229 215 228 219 239 200 194 199
272 302 5 199 277 32 321 3 350 351 38 30 355 39 129 56 39 48 53 109 181 230 173 194 205 213 216 223 228 230 233 234 238 238 235 246 245 260 230 234 234 236 221 237 229 229 219 213 225
277 331 10 50 208 9 34 359 32 241 180 59 52 49 319 14 14 24 44 82 171 226 191 206 208 219 230 232 231 234 235 235 231 227 221 225 248 327 262 247 240 234 228 230 230 235 232 222 221
253 107 338 282 333 332 330 337 342 302 252 359 296 92 320 14 12 10 30 50 111 199 212 231 211 222 229 230 232 233 234 229 230 219 204 199 241 315 249 227 241 225 232 226 231 226 238 236 224
241 242 324 342 305 319 328 326 335 318 92 345 347 124 136 6 9 6 19 37 46 20 335 253 234 230 231 238 241 245 243 236 230 225 238 248 276 276 267 225 234 233 230 230 226 231 233 242 234
252 273 267 288 296 310 317 323 331 330 7 33 50 352 67 4 2 3 16 14 37 65 59 41 329 250 239 236 238 234 244 240 234 236 243 248 259 259 269 249 234 232 224 233 223 221 229 234 246
262 267 272 277 284 295 316 324 313 1 0 356 313 23 171 346 351 349 23 22 37 24 20 23 16 0 261 242 256 260 241 242 236 238 236 242 251 251 242 240 237 235 230 228 222 209 223 223 233
263 271 276 269 279 283 297 294 296 278 68 100 160 162 163 194 208 330 16 21 26 12 4 360 2 2 24 358 267 274 262 252 265 248 242 245 244 244 235 239 235 239 234 227 222 213 219 219 216
262 261 273 271 273 267 272 291 334 334 153 181 174 169 183 199 241 304 346 11 4 339 344 343 336 347 343 335 325 314 303 287 278 282 257 247 241 236 237 243 239 231 233 229 219 218 218 223 225
272 257 262 263 277 249 252 255 309 146 155 184 192 184 194 197 230 273 309 353 331 320 327 332 338 338 339 337 325 317 302 298 283 279 276 262 242 233 232 238 238 231 234 230 222 223 222 221 221
258 253 253 269 189 247 249 232 201 175 151 222 186 197 198 190 214 247 273 298 296 299 312 322 327 337 334 328 321 312 309 301 301 290 284 281 250 237 233 235 235 227 231 222 217 220 225 226 232
259 273 265 332 226 212 261 278 196 259 216 236 223 183 213 216 219 285 303 279 283 292 305 313 319 322 323 317 317 311 307 297 294 278 276 279 265 242 236 232 233 232 241 225 213 214 220 227 233
275 290 310 232 276 276 283 286 285 267 212 233 230 211 179 194 249 261 282 285 267 297 308 317 321 318 317 315 316 308 302 297 294 287 281 275 275 249 237 232 228 231 239 221 216 217 217 224 228
267 281 285 285 279 270 294 289 288 292 244 298 258 241 226 295 211 248 265 286 276 285 312 306 321 321 315 311 311 303 298 297 287 287 271 269 265 264 240 233 228 228 230 223 215 223 222 223 228
258 265 276 280 296 265 278 277 270 249 268 251 201 252 266 243 250 231 248 281 266 279 310 319 321 326 317 312 303 304 303 298 297 292 260 249 261 264 248 233 228 227 224 227 221 219 229 226 223
254 253 261 272 279 278 285 291 280 199 251 180 283 221 206 217 200 209 227 245 269 319 310 303 340 335 326 310 307 307 314 311 301 298 265 250 257 247 244 229 227 226 226 227 227 224 218 223 221
244 253 261 262 268 273 269 272 43 98 173 209 287 258 154 196 190 208 238 239 269 265 289 317 341 346 338 327 320 311 322 316 308 316 308 250 233 240 244 228 226 225 227 225 229 222 217 232 220
237 247 250 267 265 263 255 258 240 298 221 103 108 167 179 178 199 224 245 216 297 268 280 329 349 354 348 337 336 327 327 335 303 310 304 277 245 240 235 234 227 228 228 226 226 225 218 229 227
229 239 238 247 239 246 285 241 259 144 122 94 149 169 175 182 240 248 223 216 302 284 290 333 9 359 347 347 343 339 340 340 326 322 290 287 255 232 233 230 227 225 227 227 223 221 222 226 229
225 236 237 247 237 273 270 347 296 169 200 171 159 170 180 208 265 271 247 272 286 227 285 329 335 333 324 341 353 354 353 9 356 354 336 324 282 227 225 224 227 226 225 223 221 224 223 222 227
233 226 241 263 279 252 207 238 183 177 134 146 153 174 183 222 245 271 230 220 260 234 283 325 334 331 334 346 6 13 19 17 7 24 19 13 92 215 213 221 231 228 221 221 219 222 227 224 229
238 231 237 242 263 275 259 227 156 133 126 145 169 181 178 209 255 285 192 253 284 240 298 315 323 323 338 347 18 22 26 26 35 48 49 50 73 119 201 213 221 223 219 215 219 221 225 230 234
226 238 242 249 236 250 271 58 0 236 304 210 211 185 179 216 238 280 197 248 303 270 295 299 304 325 345 344 21 32 45 57 51 43 33 52 37 29 4 17 180 199 203 204 214 220 222 226 232
238 234 229 242 249 262 280 190 203 257 290 193 195 181 174 219 249 232 239 283 297 295 306 337 304 263 320 356 17 26 34 20 39 48 65 55 21 16 10 4 84 200 194 207 221 226 227 225 230
Height
3162 3163 3164 3161 3167 3160 3153 3157 3156 3159 3161 3161 3162 3162 3162 3161 3160 3164 3165 3164 3164 3167 3171 3172 3174 3176 3177 3179 3181 3183 3185 3186 3187 3188 3188 3190 3190 3192 3192 3193 3194 3196 3196 3197 3198 3199 3199 3199 3200
3163 3166 3169 3166 3160 3158 3157 3157 3159 3162 3163 3163 3163 3164 3162 3162 3162 3163 3164 3165 3163 3167 3170 3173 3174 3177 3178 3180 3182 3184 3185 3185 3187 3188 3189 3190 3191 3192 3193 3194 3195 3196 3197 3198 3199 3199 3200 3200 3201
3164 3169 3165 3174 3165 3159 3158 3156 3159 3161 3163 3162 3161 3160 3162 3164 3166 3165 3166 3168 3165 3165 3169 3173 3175 3177 3179 3180 3182 3184 3185 3186 3187 3188 3190 3190 3191 3193 3194 3195 3195 3196 3197 3199 3200 3200 3201 3201 3202
3165 3171 3176 3172 3168 3161 3157 3159 3157 3161 3162 3161 3158 3158 3156 3161 3165 3168 3166 3166 3167 3165 3169 3173 3175 3177 3180 3180 3182 3184 3185 3186 3188 3189 3190 3190 3191 3193 3194 3195 3196 3197 3198 3200 3200 3200 3202 3202 3202
3166 3173 3175 3177 3156 3161 3159 3160 3162 3160 3164 3160 3153 3143 3154 3162 3167 3168 3167 3166 3167 3165 3170 3173 3176 3177 3180 3181 3182 3184 3185 3186 3188 3189 3190 3192 3192 3193 3194 3195 3196 3197 3198 3200 3201 3201 3201 3202 3202
3168 3172 3172 3166 3163 3159 3159 3161 3164 3164 3166 3158 3160 3159 3158 3169 3170 3168 3168 3166 3165 3165 3169 3172 3175 3177 3179 3181 3182 3184 3185 3186 3188 3189 3190 3190 3191 3193 3194 3195 3197 3198 3198 3200 3201 3202 3201 3202 3203
3168 3170 3169 3172 3163 3165 3162 3163 3165 3165 3165 3169 3166 3167 3171 3172 3172 3171 3171 3167 3165 3164 3168 3172 3174 3177 3178 3180 3181 3182 3184 3185 3187 3189 3189 3190 3191 3191 3193 3195 3197 3198 3198 3199 3201 3202 3202 3203 3202
3171 3172 3167 3174 3176 3167 3165 3165 3167 3167 3170 3177 3172 3161 3171 3172 3172 3170 3169 3169 3167 3164 3165 3170 3173 3175 3177 3178 3179 3181 3182 3183 3185 3187 3189 3190 3191 3192 3193 3194 3195 3197 3198 3199 3200 3201 3201 3202 3203
3174 3176 3173 3172 3170 3167 3166 3166 3166 3168 3163 3168 3171 3169 3174 3173 3170 3169 3167 3168 3166 3164 3166 3168 3171 3173 3174 3174 3175 3177 3178 3181 3183 3185 3187 3188 3189 3190 3191 3192 3193 3196 3196 3198 3199 3200 3200 3201 3203
3175 3178 3179 3169 3168 3169 3169 3167 3168 3163 3166 3168 3170 3172 3173 3170 3166 3166 3166 3168 3166 3165 3166 3167 3169 3170 3170 3169 3170 3174 3175 3177 3180 3182 3183 3182 3185 3186 3188 3190 3193 3193 3195 3196 3199 3199 3200 3201 3202
3174 3171 3167 3167 3170 3170 3169 3168 3168 3159 3158 3169 3169 3166 3166 3168 3163 3164 3166 3167 3166 3165 3165 3166 3167 3167 3168 3173 3175 3176 3177 3177 3176 3179 3180 3180 3183 3185 3186 3187 3189 3191 3194 3195 3196 3197 3199 3201 3201
3173 3172 3169 3171 3170 3169 3169 3167 3167 3167 3160 3162 3164 3165 3165 3167 3163 3164 3165 3165 3165 3165 3166 3167 3166 3166 3168 3172 3174 3173 3174 3176 3173 3174 3176 3177 3179 3182 3182 3185 3188 3189 3190 3193 3195 3196 3198 3200 3200
3170 3170 3169 3168 3168 3168 3167 3168 3167 3164 3163 3162 3164 3164 3165 3165 3164 3167 3166 3166 3165 3164 3165 3166 3166 3165 3167 3171 3167 3167 3171 3168 3166 3168 3169 3172 3176 3178 3179 3182 3183 3186 3189 3192 3193 3194 3197 3199 3199
3168 3166 3165 3165 3166 3166 3166 3164 3162 3167 3167 3164 3163 3164 3166 3166 3165 3166 3165 3166 3165 3166 3166 3167 3166 3164 3166 3167 3169 3167 3166 3165 3165 3170 3167 3167 3171 3174 3175 3179 3180 3183 3185 3188 3192 3192 3194 3196 3197
3165 3165 3164 3165 3165 3164 3164 3162 3163 3164 3165 3167 3165 3166 3167 3166 3164 3164 3164 3164 3164 3165 3165 3165 3165 3164 3164 3166 3167 3166 3162 3162 3162 3165 3163 3163 3166 3169 3172 3174 3176 3180 3184 3186 3188 3191 3192 3194 3196
3164 3162 3162 3161 3162 3163 3163 3161 3155 3156 3159 3162 3166 3166 3165 3165 3163 3162 3163 3163 3163 3164 3164 3164 3164 3164 3163 3163 3162 3161 3159 3157 3158 3157 3156 3160 3163 3165 3168 3169 3172 3176 3179 3183 3185 3189 3191 3192 3194
3160 3157 3155 3156 3155 3161 3160 3157 3153 3150 3149 3153 3156 3159 3161 3159 3161 3161 3161 3162 3164 3164 3164 3163 3162 3163 3162 3161 3160 3159 3157 3156 3154 3153 3153 3154 3158 3160 3162 3165 3167 3171 3174 3178 3182 3186 3188 3190 3191
3153 3153 3156 3165 3152 3161 3158 3154 3152 3150 3155 3156 3154 3160 3163 3163 3155 3158 3161 3162 3162 3164 3164 3164 3162 3161 3160 3158 3158 3156 3154 3153 3153 3151 3150 3149 3151 3154 3156 3158 3162 3165 3168 3173 3178 3183 3185 3187 3189
3155 3153 3155 3148 3155 3159 3157 3152 3154 3155 3152 3152 3151 3142 3153 3157 3155 3157 3159 3162 3161 3161 3163 3162 3161 3159 3158 3156 3155 3152 3150 3148 3147 3145 3144 3145 3145 3148 3150 3154 3157 3160 3164 3168 3174 3178 3180 3184 3187
3155 3153 3153 3155 3155 3154 3151 3151 3154 3151 3152 3151 3152 3152 3155 3147 3157 3158 3157 3159 3161 3160 3161 3161 3159 3157 3155 3153 3151 3148 3145 3143 3141 3139 3138 3138 3140 3141 3143 3147 3152 3156 3160 3164 3168 3172 3177 3181 3185
3155 3154 3152 3151 3149 3148 3148 3149 3148 3147 3146 3153 3149 3152 3152 3153 3156 3158 3149 3155 3161 3161 3160 3159 3158 3156 3153 3150 3146 3143 3141 3137 3133 3131 3130 3133 3133 3135 3137 3141 3146 3150 3155 3159 3164 3169 3173 3178 3181
3153 3153 3153 3152 3151 3147 3147 3142 3144 3142 3147 3149 3137 3152 3152 3155 3158 3159 3156 3158 3159 3158 3157 3156 3155 3153 3150 3147 3142 3138 3135 3130 3126 3124 3123 3125 3128 3130 3132 3135 3141 3145 3150 3155 3160 3163 3169 3174 3177
3152 3152 3151 3151 3150 3149 3147 3145 3144 3144 3146 3146 3148 3131 3149 3152 3155 3154 3154 3155 3155 3155 3153 3155 3154 3151 3148 3143 3138 3135 3131 3125 3123 3120 3118 3119 3123 3125 3128 3131 3135 3140 3144 3151 3155 3159 3166 3171 3172
3150 3151 3151 3151 3149 3144 3143 3143 3139 3133 3146 3144 3143 3149 3149 3150 3151 3150 3152 3152 3153 3154 3153 3154 3153 3150 3147 3142 3136 3132 3128 3122 3120 3118 3118 3117 3119 3122 3124 3127 3131 3136 3140 3145 3150 3155 3162 3167 3169
3148 3149 3147 3147 3142 3138 3138 3137 3136 3136 3139 3141 3144 3147 3148 3147 3147 3149 3150 3152 3152 3152 3153 3153 3151 3148 3146 3142 3136 3131 3125 3120 3118 3116 3115 3115 3116 3119 3121 3124 3128 3131 3136 3141 3147 3151 3157 3162 3162
3142 3145 3143 3139 3135 3140 3140 3136 3134 3133 3136 3139 3142 3145 3145 3144 3144 3147 3149 3150 3149 3151 3151 3151 3149 3147 3145 3141 3135 3130 3123 3119 3117 3116 3115 3115 3115 3117 3120 3122 3126 3128 3131 3136 3143 3147 3151 3156 3161
3139 3139 3142 3139 3134 3133 3133 3133 3133 3136 3138 3139 3142 3148 3148 3145 3144 3147 3148 3149 3149 3150 3149 3147 3148 3146 3144 3141 3135 3129 3124 3120 3118 3117 3117 3117 3117 3119 3120 3122 3124 3125 3128 3132 3138 3144 3149 3153 3158
3135 3138 3138 3137 3135 3131 3124 3129 3129 3130 3138 3142 3145 3147 3148 3145 3140 3143 3144 3145 3148 3148 3146 3146 3146 3145 3142 3140 3135 3131 3127 3124 3122 3121 3120 3119 3119 3120 3121 3122 3123 3124 3126 3131 3136 3141 3146 3150 3153
3132 3132 3132 3132 3130 3126 3123 3135 3135 3135 3137 3140 3146 3146 3146 3144 3144 3143 3143 3142 3145 3144 3144 3144 3145 3144 3142 3140 3136 3133 3130 3128 3126 3124 3124 3124 3123 3123 3122 3121 3123 3124 3126 3130 3134 3136 3142 3146 3149
3125 3126 3129 3129 3128 3125 3124 3128 3130 3135 3131 3131 3141 3143 3144 3144 3144 3141 3143 3144 3144 3141 3140 3145 3143 3142 3143 3141 3137 3134 3132 3130 3129 3128 3126 3125 3125 3125 3124 3123 3123 3125 3127 3130 3131 3133 3138 3142 3145